Flag for United Kingdom

Past Weather in Blackpool, England, United Kingdom — Yesterday and Last 2 Weeks

Now
52 °F

Scattered showers. Passing clouds.


Feels Like: 49 °F
Forecast: 52 / 45 °F
Wind: 9 mph from Northeast

Location: Blackpool Airport
Current Time: Sep 23, 2020 at 8:33:35 pm
Latest Report: Sep 23, 2020 at 7:50 pm
Visibility: N/A
Pressure29.45 "Hg
Humidity: 88%
Dew Point: 48 °F
Location of BlackpoolLocation

Past Weather in Blackpool — Graph

°F

Blackpool Temperature Yesterday

Maximum temperature yesterday: 64 °F (at 11:20 am)
Minimum temperature yesterday: 48 °F (at 6:20 am)
Average temperature yesterday: 59 °F

High & Low Weather Summary for the Past Weeks

 TemperatureHumidityPressure
High79 °F (Sep 15, 1:20 pm)100% (Sep 14, 7:20 am)30.48 "Hg (Sep 14, 7:20 am)
Low46 °F (Sep 18, 6:50 am)49% (Sep 17, 1:20 pm)29.45 "Hg (Sep 23, 4:50 pm)
Average61 °F77%30.10 "Hg
* Reported Sep 8 6:20 pm — Sep 23 6:50 pm, Blackpool. Weather by CustomWeather, © 2020

Note: Actual official high and low records may vary slightly from our data, if they occured in-between our weather recording intervals... More about our weather records

Blackpool Weather History for the Previous 24 Hours

Scroll right to see more
 ConditionsComfort  
Time TempWeatherWind HumidityBarometerVisibility
6:50 pm
Wed, Sep 23
52 °FScattered showers. Partly sunny.10 mph88%29.45 "HgN/A
6:20 pm54 °FScattered showers. Broken clouds.8 mph88%29.45 "HgN/A
5:50 pm52 °FScattered showers. Broken clouds.8 mph88%29.45 "HgN/A
5:20 pm54 °FSprinkles. Broken clouds.8 mph94%29.45 "HgN/A
4:50 pm55 °FSprinkles. Broken clouds.9 mph88%29.45 "HgN/A
4:20 pm57 °FScattered showers. Scattered clouds.8 mph77%29.47 "HgN/A
3:50 pm57 °FScattered showers. Scattered clouds.8 mph77%29.47 "HgN/A
2:50 pm57 °FScattered clouds.10 mph77%29.47 "HgN/A
2:20 pm57 °FScattered clouds.9 mph77%29.47 "HgN/A
1:50 pm57 °FScattered clouds.9 mph77%29.50 "HgN/A
12:50 pm55 °FScattered clouds.8 mph82%29.50 "HgN/A
11:50 am55 °FScattered clouds.8 mph88%29.50 "HgN/A
11:20 am55 °FScattered clouds.9 mph88%29.50 "HgN/A
10:50 am55 °FScattered clouds.9 mph88%29.50 "HgN/A
10:20 am54 °FPartly sunny.8 mph88%29.50 "HgN/A
9:50 am54 °FPartly sunny.8 mph94%29.50 "HgN/A
9:20 am54 °FPartly sunny.8 mph94%29.50 "HgN/A
8:50 am54 °FLight rain. Partly sunny.9 mph94%29.50 "Hg6 mi
8:20 am54 °FLight rain. Broken clouds.7 mph94%29.50 "Hg6 mi
7:50 am54 °FLight rain. Broken clouds.6 mph100%29.50 "Hg6 mi
8:50 pm
Tue, Sep 22
59 °FPassing clouds.14 mph94%29.59 "HgN/A
8:20 pm59 °FPassing clouds.14 mph94%29.59 "HgN/A
Weather by CustomWeather, © 2020

See weather overview